Hourly Data Report for June 04, 2017

ATIKOKAN (AUT)
ONTARIO

48°45'40.000" N
91°37'41.000" W
389.30 m
6020LPQ
71747
WCH

Download Data

Hourly Data (June 2017)
Hourly Data Report for June 4, 2017
TIME
LST
Temp Definition
°C
Dew Point Definition
°C
Rel Hum Definition
%
Precip. Amount Definition
mm

Wind Dir Definition
10's deg

Wind Spd Definition
km/h
Visibility Definition
km
Stn Press Definition
kPa
Hmdx Definition


Wind Chill Definition


Weather Definition


00:00 12.2 10.2 88 0.0   0   96.27     LegendNANA
01:00 11.7 10.3 91 0.0 0 1   96.25     LegendNANA
02:00 11.8 10.1 89 0.0   0   96.21     LegendNANA
03:00 10.7 9.4 92 0.0 0 1   96.17     LegendNANA
04:00 10.3 9.3 94 0.0 0 1   96.18     LegendNANA
05:00 11.3 10.1 93 0.0   0   96.19     LegendNANA
06:00 12.8 10.8 88 0.0 0 1   96.14     LegendNANA
07:00 15.2 11.0 76 0.0 25 4   96.14     LegendNANA
08:00 17.1 10.4 65 0.0 27 9   96.14     LegendNANA
09:00 17.4 11.0 66 0.0 29 6   96.18     LegendNANA
10:00 17.4 12.0 71 0.0 29 3   96.21     LegendNANA
11:00 19.1 12.1 64 0.0 31 4   96.24     LegendNANA
12:00 18.7 12.2 66 0.0 30 12   96.27     LegendNANA
13:00 20.7 12.8 60 0.0 27 9   96.25     LegendNANA
14:00 22.1 11.9 52 0.0 32 14   96.29     LegendNANA
15:00 20.9 11.4 55 0.0 35 10   96.36     LegendNANA
16:00 20.4 12.8 62 0.0 5 9   96.41     LegendNANA
17:00 19.7 11.9 61 0.0 5 9   96.48     LegendNANA
18:00 20.3 12.7 62 0.0 3 7   96.52     LegendNANA
19:00 16.7 13.4 81 0.0 5 6   96.60     LegendNANA
20:00 15.9 13.1 83 0.0 5 5   96.66     LegendNANA
21:00 14.4 12.8 90 0.0 4 1   96.75     LegendNANA
22:00 13.2 11.8 91 0.0 0 1   96.81     LegendNANA
23:00 13.2 11.8 92 0.0 6 3   96.86     LegendNANA

Notes on Data Quality.

Legend

  • E = Estimated
  • M = Missing
  • NA = Not Available*
  • [empty] = Indicates an unobserved value
Date modified: